Dewpoint
-1 1 2 2 1 2 3 2 -1 2 3 3 5 7 6 4 2 3 1 -2 2 6 4 2 1 -1 -0 3 2 2 4 3 -3 -3 -3 3 1 1 1 4 4 4 4 5 10
-2 -1 1 -1 -2 1 2 3 -1 -1 4 2 3 6 6 5 4 2 1 0 4 7 5 2 2 -2 3 3 3 3 4 2 -2 -6 -2 2 1 0 0 2 3 4 5 5 11
-3 -3 -2 -3 -3 1 3 3 3 -2 0 3 1 2 3 3 3 1 0 1 -1 6 5 2 3 1 3 2 2 2 2 2 1 1 1 1 -1 -0 -0 1 1 1 3 4 9
-3 -2 -3 -3 -3 2 3 4 5 3 1 0 1 1 2 3 2 0 1 -1 1 7 4 2 3 3 2 3 1 2 0 -1 -1 0 0 0 -1 -2 -1 -1 -1 -1 1 3 7
-3 -3 -3 -2 -2 0 3 5 5 2 3 2 0 3 4 4 2 -1 2 -1 1 7 4 2 4 3 2 1 0 -2 -1 -2 -3 -2 -1 -1 -2 -2 -2 -2 -3 -1 0 2 7
-3 -3 -3 -2 -1 -2 -1 0 5 5 4 4 4 4 4 4 1 -2 2 -1 4 6 3 2 3 2 0 0 -0 -1 -2 -4 -4 -3 -3 -2 -4 -4 -3 -3 -3 -1 2 4 6
-4 -4 -3 -3 -1 -1 -2 -2 -0 3 4 3 4 4 4 2 1 -1 -1 4 2 6 3 1 3 1 -1 -2 -2 -3 -2 -4 -4 -4 -4 -3 -1 -3 -4 -3 -2 1 4 6 7
-5 -5 -4 -3 -2 -1 -1 -0 -1 -0 4 3 4 4 3 3 1 -1 -2 6 6 6 3 0 3 2 -3 -3 -4 -3 -3 1 -4 -4 -4 -1 4 -5 -4 -4 -0 3 5 6 7
-6 -5 -5 -4 -3 -2 -1 1 1 2 3 4 5 4 3 0 1 -1 -2 -1 5 4 2 0 2 -2 -5 -2 -1 -3 0 -2 -3 -4 -4 -2 -1 -8 -7 -5 -0 4 5 6 6
-7 -6 -5 -4 -4 -2 -2 1 1 2 2 2 1 1 -1 0 -0 -2 -2 -1 0 -1 1 -1 -3 -3 -3 -1 0 -1 -1 -3 -4 -3 -3 -4 -3 -5 -7 -7 -5 -2 1 0 -1
-10 -8 -6 -5 -4 -4 -3 0 1 1 2 1 1 0 -0 -0 -2 -1 -1 -1 1 -1 -1 -3 -0 -0 -3 -3 -3 -5 -4 -3 -4 -4 -3 -2 -2 -3 -5 -7 -8 -7 -7 -8 -9
-10 -10 -7 -5 -4 -4 -3 -1 0 0 0 0 0 -0 -1 -1 -1 -2 -0 -2 -3 -1 -3 -2 0 -4 -5 -6 -5 -7 -6 -5 -4 -5 -4 -6 -5 -6 -8 -7 -7 -8 -8 -9 -8
-9 -8 -9 -6 -5 -4 -3 -1 -2 -3 -1 -2 -1 -1 -1 -1 -2 -1 -1 -3 -4 -4 -3 -1 -1 -2 -4 -4 -4 -5 -5 -6 -5 -5 -6 -8 -7 -9 -6 -7 -6 -6 -8 -9 -8
-6 -7 -7 -7 -5 -3 -1 -0 -1 -3 -0 -4 -3 -2 -1 -2 -2 -2 -2 -3 -3 -2 -1 -1 -1 -4 -3 -3 -5 -4 -3 -5 -4 -4 -3 -8 -7 -9 -8 -5 -3 -3 -5 -7 -8
-5 -6 -6 -6 -4 -2 -2 -2 -3 -1 -1 -6 -3 -2 -2 -4 -3 -2 -2 -2 -2 -0 -3 -0 -0 -3 -3 -1 -2 -5 -3 -4 -6 -4 -5 -7 -0 -6 -8 -9 -6 -4 -3 -6 -7
-6 -6 -5 -5 -6 -6 -5 -4 -1 -2 -3 -4 -4 -3 -5 -4 -4 -3 -2 -2 -2 -3 -2 -1 -1 -0 -1 -2 -2 -1 -3 -3 -3 -3 0 -4 -1 -3 -9 -7 -4 -4 -3 -5 -5
-7 -5 -7 -3 -3 -3 -5 -3 -1 -1 -6 -4 -2 -3 -5 -4 -5 -5 -4 -3 -2 -1 -1 -3 -2 -1 -1 -2 -3 -5 -2 1 0 1 1 -1 -1 -3 -9 -5 -3 -2 -3 -4 -3
-5 -3 -3 -4 -3 -5 -3 -4 -2 -4 -3 -2 -2 -5 -5 -5 -5 -5 -5 -4 -4 -4 -2 -0 -0 -0 -0 -1 -2 -4 -5 1 -4 -2 -3 -3 -1 -0 -5 -5 -3 -2 -3 -3 -2
-5 -3 -2 -2 -1 -1 -0 -0 -3 -4 -1 0 -4 -6 -6 -6 -5 -5 -4 -4 -5 -5 -5 -4 -1 -0 -0 -1 -3 -4 -3 -7 -3 -4 -5 -4 -6 -11 -7 -6 -3 -1 -2 -2 -2
-1 -2 1 -2 -0 0 -2 0 -1 -2 -2 -2 -4 -6 -6 -6 -5 -5 -4 -4 -4 -6 -6 -5 -0 -1 -0 -1 -4 -6 -7 -4 -2 -6 -7 -6 -7 -0 -5 -5 -3 -1 -1 -0 -0
0 -2 -0 -3 -3 -4 -1 -2 -2 -3 -3 -2 -3 -4 -6 -6 -6 -4 -5 -3 -3 -5 -7 -5 -4 -0 -1 -1 -1 -4 -5 -6 -7 -8 -9 -11 -3 -5 -4 -4 -3 -0 -0 -0 -1
-0 -2 -2 -4 -7 -3 -2 -2 -3 -4 -5 -4 -5 -5 -6 -6 -5 -4 -3 -3 -2 -3 -8 -9 -4 0 -2 -4 -4 -4 -5 -7 -3 -7 -8 -9 -5 -9 -5 -3 -2 -1 -2 -2 -2
-4 -3 -3 -6 -6 -5 -4 -5 -5 -6 -7 -6 -7 -6 -8 -7 -6 -3 -2 -2 -2 -4 -7 -8 -9 -5 -8 -8 -6 -2 -3 -7 -7 -5 -5 -6 -8 -6 -4 -3 -2 -3 -3 -3 -3
-6 -4 -4 -3 -5 -6 -7 -7 -8 -6 -6 -6 -8 -9 -8 -9 -7 -4 -3 -2 -3 -4 -5 -8 -10 -10 -6 -10 -6 -3 -2 -6 -6 -2 -7 -7 -11 -12 -4 -3 -4 -3 -2 -2 -3
-6 -2 -2 -3 -2 -4 -6 -6 -5 -5 -7 -7 -10 -10 -10 -12 -11 -8 -4 -5 -4 -3 -5 -11 -12 -10 -9 -9 -6 -7 -8 -2 -5 -6 -6 -9 -9 -11 -11 -5 -4 -3 -2 -2 -2
-6 -5 -1 -1 -1 -1 -2 -3 -3 -4 -4 -4 -5 -8 -8 -10 -13 -13 -8 -8 -11 -4 -6 -8 -10 -6 -10 -1 -7 -7 -8 -7 -3 -3 -6 -6 -5 -11 -8 -7 -4 -3 -2 -3 -4
-7 -4 -2 -2 -2 -3 -3 -3 -3 -3 -4 -4 -4 -3 -2 -5 -6 -5 -10 -8 -8 -7 -7 -9 -5 -3 -2 -1 -0 -1 -1 -4 -7 -5 -5 -4 -7 -7 -5 -4 -3 -3 -3 -3 -4
Wind_Speed
19 18 16 16 16 13 10 7 6 4 5 8 10 10 9 10 11 12 13 8 14 9 3 6 9 10 12 10 9 9 3 3 4 6 3 11 4 8 6 9 7 7 5 6 23
17 18 16 16 20 17 9 6 3 4 5 7 10 10 9 9 9 14 11 11 9 10 7 5 8 11 8 9 8 5 4 9 4 3 2 7 4 14 7 7 5 6 8 9 23
13 14 14 16 21 23 8 3 4 2 6 6 6 8 10 8 5 6 6 11 14 11 8 5 7 10 5 7 7 6 5 4 5 5 2 5 3 8 10 3 9 12 14 15 23
10 12 14 17 21 26 11 5 4 2 2 6 6 7 9 9 5 2 3 11 16 10 9 7 7 6 5 5 7 4 6 4 4 5 4 6 7 5 10 3 4 8 12 16 23
9 10 12 14 17 23 15 14 9 1 1 3 6 8 10 7 4 4 4 9 19 11 11 9 8 5 4 5 7 3 2 3 2 4 4 6 3 3 9 5 2 11 13 17 21
9 8 9 11 12 15 18 18 13 7 1 4 7 9 10 2 2 3 3 11 14 12 12 10 6 6 3 6 5 8 4 2 2 3 4 4 2 3 3 9 6 8 14 17 19
9 8 8 8 10 11 13 14 16 11 7 4 7 9 8 5 1 2 3 9 12 11 10 11 4 4 2 3 5 8 5 2 2 1 2 4 2 5 3 8 9 11 13 16 17
9 8 7 8 9 11 12 12 11 13 5 0 4 6 3 2 3 1 2 8 13 11 9 11 6 4 3 6 4 4 5 4 1 0 1 5 5 2 6 9 10 12 14 15 16
8 9 8 7 7 8 10 8 10 11 9 6 6 1 2 0 2 2 2 4 9 9 8 9 4 2 2 5 4 5 4 3 1 2 1 2 3 1 0 9 10 13 15 14 14
7 8 8 7 5 5 7 4 7 9 11 11 6 4 4 3 1 2 5 6 6 11 6 5 2 2 3 2 8 5 6 2 4 1 3 1 6 4 1 4 11 12 14 14 15
6 7 8 7 5 4 4 2 2 2 5 2 5 2 2 5 7 4 5 6 10 8 3 2 4 3 7 5 5 6 6 5 1 2 2 4 5 12 7 6 9 15 15 16 14
6 6 7 7 5 4 2 3 7 6 5 5 3 5 4 2 3 6 8 3 4 3 3 5 3 3 3 4 5 4 7 3 2 2 2 3 9 10 6 7 16 18 19 18 18
8 7 6 6 5 3 1 2 2 2 3 3 3 4 4 4 2 5 9 6 4 3 2 5 2 1 2 3 5 3 5 4 3 2 3 4 7 5 2 2 5 10 16 19 20
11 13 4 3 4 3 3 2 2 1 4 5 3 1 2 3 3 7 4 2 4 4 3 4 4 2 3 3 1 4 1 5 6 3 2 3 4 4 3 5 3 6 11 16 20
11 16 3 2 1 2 4 3 2 1 5 7 2 1 2 1 6 2 1 1 4 3 4 0 3 3 3 1 2 3 2 4 3 4 3 3 3 6 3 2 2 5 7 12 18
9 14 6 2 3 4 5 2 1 5 1 4 3 1 1 1 1 4 1 3 4 4 6 2 2 3 1 2 2 6 5 7 4 3 2 2 3 5 3 2 3 2 4 8 15
6 10 7 2 2 1 2 2 5 6 3 3 1 3 2 1 2 2 2 3 2 4 3 4 3 3 3 4 2 4 5 3 3 3 4 1 2 9 4 4 2 4 5 9 14
5 7 9 6 2 4 3 4 7 0 2 3 3 1 3 1 2 2 4 2 1 5 3 4 3 2 4 1 4 1 4 5 6 4 3 1 5 5 4 2 2 4 6 10 13
1 5 8 5 3 0 1 5 1 1 3 5 4 1 2 0 3 2 1 4 3 3 4 4 1 3 2 2 1 3 2 3 7 3 2 2 6 6 3 3 1 4 8 10 11
2 3 9 6 2 1 4 4 4 4 1 2 2 2 2 2 2 2 2 1 2 1 2 4 4 1 2 1 3 1 4 3 2 4 4 4 5 5 2 5 3 4 9 10 11
1 0 10 5 2 2 3 2 3 2 1 1 2 2 2 2 1 2 4 2 2 2 2 4 3 2 1 4 5 2 1 4 3 2 4 1 5 5 5 4 5 7 10 10 9
3 2 8 2 4 3 2 1 2 2 2 2 1 2 2 1 1 1 2 1 2 2 3 1 4 3 3 1 1 1 2 3 4 4 2 2 6 2 3 2 9 11 11 10 9
2 2 5 4 3 1 1 2 1 2 2 3 2 2 2 3 2 2 1 0 2 1 1 2 0 2 5 2 2 4 4 3 4 2 5 5 5 1 0 2 5 11 10 10 10
3 2 3 4 4 4 2 2 1 1 1 1 2 2 1 1 2 4 4 3 1 3 2 2 2 3 5 1 3 4 4 4 4 3 5 6 3 2 4 5 7 10 12 12 11
4 0 1 2 3 1 1 1 2 3 2 1 1 1 2 3 2 2 1 1 1 2 1 4 2 1 3 3 2 2 3 7 8 3 5 2 6 2 6 8 16 16 15 13 11
4 1 0 2 2 1 1 3 2 2 4 3 3 1 2 2 2 4 2 2 3 1 2 1 3 3 3 2 4 4 8 8 7 4 8 4 14 8 2 3 15 18 16 13 11
3 2 2 1 1 2 4 3 3 1 3 3 4 4 2 4 3 1 4 1 2 2 4 1 5 2 4 3 3 7 7 10 4 2 5 6 4 1 0 2 11 17 16 14 12
Wind_Direction
23 21 27 30 22 5 347 335 311 269 236 219 218 207 207 216 229 237 242 251 229 237 258 229 207 197 178 169 167 150 116 208 224 161 230 160 147 155 157 143 171 177 158 157 177
30 32 43 35 21 6 347 341 323 260 245 225 217 216 207 213 228 249 264 244 221 218 229 226 206 187 175 173 164 152 166 205 201 203 222 182 180 156 163 145 192 187 176 164 179
21 20 10 17 9 358 337 353 329 247 243 240 221 218 215 203 244 272 256 232 210 222 213 208 199 178 175 169 175 169 193 207 214 212 194 183 178 171 148 210 202 207 188 176 180
8 7 1 3 10 14 28 30 4 311 235 232 225 199 190 174 192 355 295 215 191 197 198 183 186 183 152 175 177 166 225 186 161 191 178 174 160 180 192 163 202 200 207 188 185
340 354 355 359 7 23 37 33 28 22 103 177 178 179 171 196 227 342 307 199 186 190 187 184 189 182 188 180 143 182 189 167 164 161 166 166 148 194 212 198 205 190 193 194 186
312 335 344 348 3 19 39 35 25 15 76 149 156 165 186 208 273 358 16 180 188 184 191 184 198 221 206 185 177 190 140 133 135 135 133 150 189 188 211 205 202 183 182 189 186
297 312 327 342 354 4 14 29 33 27 24 163 163 176 201 208 72 33 39 177 191 190 198 192 201 241 205 142 162 139 107 83 54 180 115 137 195 224 183 180 184 181 179 184 184
300 297 313 333 352 2 10 17 31 32 36 187 149 182 245 286 219 44 18 167 175 192 196 193 200 284 231 148 81 103 63 138 299 290 67 161 248 179 220 196 182 177 178 184 188
309 302 290 304 339 359 14 40 47 35 60 92 117 146 301 111 219 282 157 175 175 179 176 178 203 261 159 123 66 17 158 160 159 28 327 108 240 83 200 201 186 184 185 190 197
305 312 301 297 305 344 8 79 60 74 96 70 38 8 29 115 113 97 129 153 149 159 156 155 177 63 28 114 183 162 115 109 159 252 42 328 255 245 13 212 211 200 198 205 210
292 312 313 301 299 319 13 8 35 36 36 306 295 266 354 109 104 176 132 132 136 137 132 115 85 205 212 190 173 138 122 145 127 2 148 254 269 272 248 240 224 216 211 213 211
325 297 303 307 295 315 46 89 78 89 71 72 34 16 102 120 113 161 156 137 120 124 127 50 189 209 141 136 131 112 121 125 63 55 121 6 283 259 235 226 230 224 215 212 205
14 330 281 293 310 328 360 113 183 296 53 66 99 101 112 104 98 159 168 142 128 124 157 149 226 248 164 128 109 45 137 165 138 118 72 329 292 283 32 236 221 224 226 220 214
12 359 310 260 312 326 328 311 236 251 78 324 330 129 191 208 62 159 218 172 55 149 112 112 299 186 127 102 92 136 155 117 121 95 188 4 269 294 332 297 232 218 225 220 212
359 4 32 179 312 332 319 317 313 223 58 306 318 354 159 179 142 46 189 151 126 117 109 246 1 74 83 51 333 147 116 103 95 96 97 9 74 272 346 289 298 233 229 218 208
344 356 23 47 306 287 301 311 104 44 305 352 324 345 91 65 92 121 101 81 109 85 43 61 356 56 100 39 46 153 79 53 57 80 40 342 120 281 234 218 300 304 228 196 185
358 2 14 34 43 39 274 144 37 91 294 297 314 8 70 9 69 86 71 30 138 77 19 9 340 342 45 77 32 72 69 30 24 14 213 210 62 249 237 224 227 302 219 179 175
25 28 31 35 64 117 158 57 70 109 274 352 293 226 115 5 25 85 113 111 33 83 115 151 316 6 356 37 190 124 147 151 176 181 234 50 232 253 200 264 274 310 177 164 163
286 24 9 20 14 337 245 54 191 265 335 349 311 93 16 96 147 90 50 170 181 173 160 146 301 318 41 330 54 183 163 137 106 14 46 220 281 290 257 266 97 68 143 153 165
310 319 4 350 12 292 74 157 198 215 224 125 351 84 229 201 136 107 187 221 161 142 166 199 97 355 303 328 43 201 149 79 1 147 229 286 280 240 200 202 160 120 139 148 160
31 238 359 4 25 58 96 228 272 266 293 203 158 308 340 315 349 203 187 159 205 188 169 154 101 271 8 211 187 125 232 50 112 112 165 200 259 206 205 206 179 143 155 152 148
339 26 1 56 52 40 69 180 344 319 333 305 293 167 154 41 309 289 275 342 9 325 190 191 126 159 200 260 233 212 219 159 131 209 75 118 273 159 220 202 165 156 148 141 137
15 16 4 30 86 42 220 294 275 348 346 358 306 302 251 172 157 178 147 218 12 30 156 188 233 57 353 355 354 228 197 132 105 94 199 146 256 129 213 147 162 149 142 137 130
348 32 53 54 70 123 161 143 342 261 278 320 295 338 280 268 308 189 191 215 154 141 109 130 127 181 191 189 126 199 193 190 149 139 174 221 276 227 226 200 172 164 159 149 136
2 71 104 314 15 46 2 239 168 146 181 90 8 56 345 311 292 262 271 200 195 181 120 130 197 127 265 241 208 243 183 186 206 187 192 256 213 246 230 211 196 179 166 154 139
348 347 358 149 162 138 6 238 234 261 169 163 159 225 163 245 241 312 183 226 226 288 153 336 211 156 235 175 190 254 232 205 221 226 260 239 274 218 275 208 182 180 168 156 146
350 337 293 217 143 124 206 184 227 245 252 262 188 144 215 223 205 218 204 303 304 183 189 145 138 123 268 9 318 287 235 192 177 170 181 218 245 129 339 231 192 174 174 170 162
Height
1518 1515 1513 1510 1508 1505 1503 1500 1500 1500 1501 1501 1503 1504 1506 1508 1510 1511 1512 1515 1515 1517 1518 1519 1520 1522 1524 1526 1528 1530 1538 1542 1536 1538 1529 1528 1531 1533 1534 1535 1538 1539 1540 1541 1545
1519 1517 1514 1512 1509 1505 1501 1500 1498 1499 1500 1500 1502 1504 1505 1506 1509 1509 1511 1511 1514 1516 1518 1518 1520 1522 1524 1524 1526 1528 1533 1531 1528 1528 1527 1527 1529 1530 1534 1535 1537 1537 1538 1540 1544
1520 1518 1516 1512 1509 1503 1499 1498 1498 1497 1499 1500 1501 1502 1503 1505 1508 1506 1507 1508 1512 1515 1517 1518 1520 1522 1522 1523 1525 1526 1530 1526 1526 1527 1526 1527 1529 1529 1531 1535 1533 1534 1536 1538 1542
1520 1518 1516 1514 1510 1503 1498 1498 1497 1497 1498 1499 1500 1501 1503 1506 1509 1504 1504 1506 1510 1513 1515 1517 1520 1521 1522 1523 1523 1526 1524 1524 1525 1526 1525 1527 1527 1529 1530 1530 1531 1533 1536 1537 1540
1520 1518 1516 1514 1511 1506 1502 1500 1498 1498 1498 1498 1499 1501 1504 1505 1504 1504 1504 1504 1508 1512 1514 1517 1519 1521 1521 1520 1522 1524 1522 1523 1524 1524 1524 1526 1526 1528 1527 1530 1531 1532 1535 1537 1540
1519 1518 1516 1514 1512 1509 1506 1503 1500 1498 1498 1499 1500 1502 1504 1506 1504 1504 1503 1504 1508 1511 1514 1516 1519 1520 1520 1519 1520 1520 1522 1524 1524 1524 1525 1526 1528 1527 1527 1529 1531 1532 1534 1538 1541
1518 1517 1516 1514 1512 1510 1507 1504 1502 1500 1499 1499 1501 1502 1504 1505 1505 1505 1505 1506 1508 1511 1514 1516 1518 1520 1519 1519 1519 1519 1523 1524 1524 1525 1525 1526 1530 1527 1526 1528 1530 1532 1534 1538 1541
1517 1516 1515 1513 1511 1510 1508 1506 1504 1502 1500 1501 1502 1504 1504 1503 1505 1506 1506 1507 1509 1511 1514 1516 1518 1519 1519 1519 1519 1522 1525 1530 1525 1524 1524 1525 1529 1525 1526 1527 1529 1531 1534 1538 1540
1516 1515 1513 1513 1512 1511 1508 1507 1505 1503 1502 1503 1504 1505 1504 1504 1505 1506 1507 1507 1509 1512 1515 1516 1518 1519 1519 1520 1525 1527 1531 1529 1526 1525 1524 1524 1527 1525 1525 1526 1528 1530 1533 1536 1538
1514 1514 1513 1512 1511 1511 1510 1508 1506 1505 1505 1507 1506 1507 1505 1505 1505 1506 1507 1508 1509 1511 1516 1517 1518 1521 1521 1522 1524 1528 1530 1528 1526 1527 1526 1527 1528 1524 1525 1526 1527 1529 1530 1533 1535
1512 1513 1513 1512 1511 1510 1510 1509 1510 1509 1506 1506 1506 1505 1505 1506 1506 1507 1508 1509 1510 1512 1515 1516 1523 1525 1520 1518 1517 1520 1523 1525 1528 1527 1527 1529 1530 1522 1524 1526 1526 1526 1528 1530 1532
1512 1511 1512 1512 1510 1510 1510 1509 1508 1509 1507 1505 1505 1505 1506 1506 1507 1507 1509 1510 1511 1514 1515 1520 1523 1517 1516 1516 1517 1518 1524 1527 1529 1528 1529 1531 1527 1521 1519 1519 1520 1522 1524 1527 1529
1511 1510 1510 1511 1511 1511 1510 1511 1510 1509 1508 1507 1505 1506 1507 1508 1507 1508 1510 1509 1511 1514 1515 1520 1519 1516 1516 1517 1518 1522 1523 1526 1525 1530 1533 1533 1524 1518 1517 1517 1517 1519 1521 1524 1526
1512 1509 1508 1510 1513 1511 1511 1511 1510 1510 1518 1512 1508 1508 1508 1506 1508 1509 1510 1511 1511 1516 1517 1520 1519 1517 1516 1518 1520 1520 1522 1523 1528 1531 1538 1539 1535 1522 1519 1518 1516 1517 1519 1520 1523
1512 1509 1507 1509 1510 1510 1512 1510 1510 1511 1543 1512 1508 1508 1507 1508 1509 1510 1510 1510 1512 1515 1517 1522 1521 1518 1518 1521 1520 1522 1523 1526 1531 1538 1540 1540 1547 1520 1522 1514 1514 1515 1516 1516 1519
1511 1510 1508 1508 1509 1510 1510 1510 1511 1526 1538 1515 1509 1508 1508 1508 1508 1509 1510 1511 1513 1515 1517 1523 1522 1522 1523 1523 1521 1525 1527 1534 1542 1544 1553 1551 1551 1528 1519 1513 1514 1513 1514 1515 1517
1511 1510 1508 1508 1509 1509 1510 1511 1525 1532 1518 1515 1512 1509 1509 1510 1509 1509 1512 1515 1517 1527 1532 1526 1526 1523 1523 1524 1524 1525 1532 1553 1552 1558 1548 1556 1555 1521 1513 1513 1513 1513 1513 1515 1518
1512 1511 1510 1509 1508 1508 1510 1514 1525 1516 1517 1515 1512 1510 1510 1510 1511 1511 1513 1518 1517 1518 1532 1533 1535 1526 1525 1525 1523 1526 1528 1543 1545 1552 1545 1555 1541 1516 1512 1512 1512 1513 1514 1516 1520
1513 1512 1511 1509 1509 1508 1510 1528 1524 1518 1519 1516 1512 1510 1510 1509 1510 1512 1515 1518 1516 1516 1522 1525 1525 1526 1526 1525 1527 1525 1531 1532 1551 1561 1550 1545 1529 1511 1511 1512 1513 1514 1515 1517 1520
1513 1513 1511 1510 1509 1509 1512 1519 1519 1517 1516 1515 1514 1513 1511 1509 1510 1511 1515 1516 1515 1515 1516 1517 1526 1528 1526 1526 1526 1525 1528 1532 1542 1538 1536 1541 1535 1519 1511 1512 1513 1514 1515 1517 1519
1512 1512 1511 1509 1509 1509 1522 1521 1518 1516 1516 1516 1515 1515 1513 1512 1512 1513 1512 1515 1515 1515 1515 1517 1521 1531 1529 1527 1526 1529 1528 1534 1535 1537 1530 1532 1526 1513 1513 1510 1511 1512 1514 1516 1519
1513 1512 1511 1509 1510 1517 1521 1518 1518 1517 1516 1515 1515 1513 1513 1514 1513 1514 1514 1516 1516 1516 1515 1516 1525 1539 1525 1526 1527 1526 1524 1527 1528 1532 1551 1544 1525 1508 1509 1509 1510 1512 1515 1517 1519
1511 1512 1513 1510 1516 1519 1518 1519 1517 1517 1517 1516 1515 1515 1513 1513 1512 1513 1514 1515 1514 1515 1516 1516 1521 1541 1527 1528 1527 1526 1525 1527 1534 1537 1543 1532 1514 1510 1511 1511 1512 1515 1517 1519 1520
1511 1513 1512 1512 1514 1515 1514 1514 1516 1516 1516 1517 1516 1515 1515 1514 1514 1513 1514 1514 1513 1514 1514 1515 1523 1518 1521 1511 1520 1522 1522 1525 1522 1536 1528 1523 1508 1510 1511 1512 1513 1515 1517 1519 1520
1512 1513 1511 1516 1515 1516 1516 1515 1512 1511 1513 1513 1515 1517 1518 1515 1514 1513 1515 1514 1513 1513 1514 1515 1517 1524 1519 1517 1517 1515 1516 1524 1526 1519 1513 1512 1511 1506 1506 1507 1509 1512 1516 1518 1520
1513 1513 1513 1513 1512 1514 1516 1515 1515 1512 1511 1511 1512 1513 1515 1516 1516 1514 1514 1515 1511 1514 1514 1516 1517 1520 1511 1515 1517 1516 1514 1517 1519 1516 1518 1516 1508 1504 1505 1505 1507 1510 1515 1518 1520
1512 1512 1513 1513 1513 1513 1511 1511 1512 1513 1513 1511 1509 1509 1511 1510 1510 1511 1512 1513 1513 1513 1516 1517 1521 1521 1511 1516 1515 1509 1501 1503 1506 1508 1505 1509 1502 1503 1505 1506 1507 1510 1513 1516 1518